ONEWEB-0404, 50484

Orbit data source: Space-Track

ONEWEB-0404, 50484 is a payload satellite owned by One Web (NAA) (UK) in LEO that was launched on Mon, 27 Dec 2021 UTC via a SOYUZ-2-1B launch vehicle from the Tyuratam Missile And Space Complex (TTMTR). Payload-class satellites include a variety of spacecraft equipped with specific instruments for various scientific and technological missions. These include communications satellites like Starlink; space stations such as the ISS; scientific satellites like the Hubble; Earth observation satellites from companies like Planet Labs, Umbra, and HawkEye 360; GPS; miniature CubeSats for education and research; and military/defense satellites.

Loading next visibility...
Identifier
50484, 2021-132R
Orbit
LEO
Country
Flag of UKUK
Related business
Manufacturer
One Web
Mission
Operational Commercial Communications
Bus & Motor
ARROW, Unknown motor
Mass
148 kg wet, ~140 kg dry
Launch date (UTC)
2021-12-27 (4 years ago)
Launch vehicle
SOYUZ-2-1B
Launch site
Tyuratam Missile And Space Complex (TTMTR)
Object type
Payload
Rocket body
Debris
Shape & HBR
Trap Box + 2 Pan, 6.7 m
Radar Cross Section
3.464 m², Large (>1 m²)

Expand to show TLE details & history
Last TLE update: 2 days ago

TLE from 2 days ago
0 ONEWEB-0404
1 50484U 21132R   26171.00188437 -.00000348  00000-0 -10164-2 0  9999
2 50484  87.8888  20.5069 0002104  82.4379 277.6988 13.11418996216067
Epoch: 2026-06-20T00:02Z
TLE epoch observation values (Epoch: 2026-06-20T00:02:42.809Z)
Latitude
-0.00002°
Longitude
111.60576°
Altitude
1,220.35 km
Speed
7.244 km/s
True Right ascension
01h 22m 01s
True Declination
0° 00' 00"
Sunlit
Object was in daylight at epoch
Visualization orbit readout
Latitude
Unknown
Longitude
Unknown
Altitude
Unknown
Speed
Unknown
Apparent Right ascension
Unknown
Apparent Declination
Unknown
Sunlit
N/A
Visualization observer readout
Local Sidereal Time
21:32:06
Azimuth
Unknown
Elevation
Unknown
Doppler factor
Unknown
Orbital elements
Apogee altitude
1,216.391 km
Perigee altitude
1,213.195 km
Semi-major axis
7,592.93 km
Eccentricity
0.00021
Inclination
87.8888°
RAAN
20.5069°
Arg. of periapsis
82.4379°
True anomaly
277.67491°
Mean anomaly
277.6988°
Eccentric anomaly
277.68685°
Mean motion
3.28042 °/min
Orbital period
109.74 mins
BSTAR
-0.0010164
Loading maneuver chart data...
Computing Atmospheric mass density...
Loading historical data...
Loading historical data...
Loading historical data...
Loading historical data...
Loading historical data...
Loading historical data...
Loading historical data...

Documentation

Showing up to 5 results
|